Ashland, WI

2:51 PM CST on December 15, 2019 (GMT -0600)
Kennedy Memorial

Weather History for KASX - November, 2019

Change the Weather History Date:

Tuesday, November 12, 2019

  Actual Average Record
Temperature  
Mean Temperature 10 °F 33 °F  
Max Temperature 18 °F 41 °F 63 °F (1905)
Min Temperature 2 °F 25 °F -5 °F (1950)
Degree Days  
Heating Degree Days 55 32  
Month to date heating degree days 498 350  
Since 1 July heating degree days 1461 1394  
Cooling Degree Days 0 0  
Month to date cooling degree days 0 0  
Year to date cooling degree days 253 239  
Moisture  
Dew Point -1 °F    
Average Humidity 64    
Maximum Humidity 91    
Minimum Humidity 37    
Precipitation  
Precipitation 0.00 in - 1.36 in (1975)
Sea Level Pressure  
Sea Level Pressure 30.40 in    
Wind  
Wind Speed 8 mph (SSW)    
Max Wind Speed 14 mph    
Max Gust Speed 22 mph    
Visibility 10 miles    
Events      
T = Trace of Precipitation, MM = Missing Value Source: NWS Daily Summary

Daily Weather History Graph

Daily Weather History Graph

Search for Another Location

Airport or City:

Astronomy

Nov. 12, 2019 Rise Set
Actual Time 7:01 AM CST 4:33 PM CST
Civil Twilight 6:28 AM CST 5:06 PM CST
Nautical Twilight 5:52 AM CST 5:42 PM CST
Astronomical Twilight 5:16 AM CST 6:18 PM CST
Moon 5:02 PM CST (11/12) 6:49 AM CST (11/12)
Length of Visible Light 10h 37m
Length of Day
9h 32m
Full, 100% of the Moon is Illuminated
Nov 12
Full
Nov 19
Last Quarter
Nov 26
New
Dec 4
First Quarter
Dec 11
Full

Hourly Weather History & Observations

Time (CST) Temp. Windchill Dew Point Humidity Pressure Visibility Wind Dir Wind Speed Gust Speed Precip Events Conditions
12:53 AM 8.1 °F -6.2 °F -0.0 °F 70% 30.57 in 8.0 mi NW 10.4 mph - N/A   Overcast
1:53 AM 8.1 °F -3.2 °F -0.0 °F 70% 30.56 in 10.0 mi NW 6.9 mph - 0.00 in   Overcast
3:53 AM 3.9 °F -6.9 °F -0.0 °F 84% 30.55 in 10.0 mi West 5.8 mph - N/A   Scattered Clouds
4:53 AM 3.9 °F -6.9 °F 1.0 °F 88% 30.54 in 10.0 mi SSW 5.8 mph - N/A   Mostly Cloudy
5:53 AM 3.0 °F -9.3 °F -0.9 °F 84% 30.54 in 9.0 mi SW 6.9 mph - N/A   Overcast
6:29 AM 1.9 °F -10.6 °F -2.0 °F 83% 30.46 in 8.0 mi SW 6.9 mph - N/A   Overcast
6:53 AM 3.0 °F -11.5 °F -0.9 °F 84% 30.53 in 9.0 mi SW 9.2 mph - N/A   Overcast
7:53 AM 3.9 °F -9.4 °F -0.0 °F 84% 30.54 in 5.0 mi SW 8.1 mph - N/A   Overcast
8:53 AM 7.0 °F -5.7 °F 1.9 °F 80% 30.54 in 10.0 mi WSW 8.1 mph - N/A   Overcast
9:53 AM 10.0 °F -3.7 °F 3.0 °F 73% 30.53 in 10.0 mi SW 10.4 mph - N/A   Mostly Cloudy
10:53 AM 12.0 °F 2.7 °F -0.9 °F 56% 30.49 in 10.0 mi West 5.8 mph - N/A   Clear
11:53 AM 14.0 °F 0.5 °F -2.9 °F 47% 30.47 in 10.0 mi SSW 11.5 mph - N/A   Clear
12:53 PM 16.0 °F 6.3 °F -2.0 °F 45% 30.43 in 10.0 mi SSW 6.9 mph - N/A   Clear
1:53 PM 18.0 °F 6.1 °F -2.0 °F 41% 30.40 in 10.0 mi SSW 10.4 mph - N/A   Clear
2:53 PM 17.1 °F 7.6 °F -4.0 °F 39% 30.35 in 10.0 mi Variable 6.9 mph - N/A   Clear
3:53 PM 17.1 °F 5.8 °F -5.1 °F 37% 30.32 in 10.0 mi SSW 9.2 mph - N/A   Clear
4:53 PM 14.0 °F 6.5 °F -4.0 °F 45% 30.29 in 10.0 mi SSE 4.6 mph - N/A   Clear
5:53 PM 12.0 °F 2.7 °F -2.9 °F 51% 30.27 in 10.0 mi SSE 5.8 mph - N/A   Clear
6:53 PM 12.0 °F 4.1 °F -2.9 °F 51% 30.24 in 10.0 mi SSE 4.6 mph - N/A   Clear
7:53 PM 12.0 °F -0.4 °F -2.0 °F 53% 30.23 in 10.0 mi South 9.2 mph - N/A   Clear
8:53 PM 12.9 °F 1.6 °F -2.0 °F 51% 30.20 in 10.0 mi South 8.1 mph - N/A   Clear
9:53 PM 12.9 °F 0.7 °F -0.9 °F 54% 30.17 in 10.0 mi South 9.2 mph - N/A   Clear
10:53 PM 14.0 °F 2.9 °F -0.9 °F 52% 30.14 in 10.0 mi South 8.1 mph - N/A   Clear
11:53 PM 14.0 °F 2.0 °F -0.0 °F 54% 30.13 in 10.0 mi South 9.2 mph - N/A   Clear